This is the latest recevied weather packets stored in our database for station/object KC4JY. If no packets are shown the sender has not sent any weather packets the latest 10 day(s).
| Time | Temp. | Humidity | Pressure | Rain* | Wind** | Luminosity | Snow |
|---|---|---|---|---|---|---|---|
| 1777836603 | 18.33° C | 36% | 1016.8 hPa | 0 mm | - | - | - |
| 1777835701 | 17.78° C | 39% | 1017 hPa | 0 mm | - | - | - |
| 1777834860 | 17.78° C | 39% | 1017.2 hPa | 0 mm | - | - | - |
| 1777833968 | 17.78° C | 40% | 1017.5 hPa | 0 mm | - | - | - |
| 1777833041 | 17.22° C | 38% | 1017.6 hPa | 0 mm | - | - | - |
| 1777832139 | 17.22° C | 38% | 1017.9 hPa | 0 mm | - | - | - |
| 1777831219 | 16.67° C | 40% | 1018 hPa | 0 mm | - | - | - |
| 1777830319 | 16.67° C | 39% | 1017.9 hPa | 0 mm | - | - | - |
| 1777829461 | 16.11° C | 42% | 1018.1 hPa | 0 mm | - | - | - |
| 1777828558 | 16.11° C | 45% | 1018.3 hPa | 0 mm | - | - | - |
| 1777827640 | 16.11° C | 43% | 1018.5 hPa | 0 mm | - | - | - |
| 1777826738 | 15.56° C | 44% | 1018.6 hPa | 0 mm | - | - | - |
| 1777825817 | 15° C | 45% | 1018.7 hPa | 0 mm | - | - | - |
| 1777824914 | 15° C | 49% | 1018.9 hPa | 0 mm | - | - | - |
| 1777824059 | 15° C | 46% | 1019 hPa | 0 mm | - | - | - |
| 1777823152 | 15° C | 45% | 1019.2 hPa | 0 mm | - | - | - |
| 1777822233 | 15° C | 51% | 1019.2 hPa | 0 mm | - | - | - |
| 1777821328 | 14.44° C | 47% | 1019.1 hPa | 0 mm | - | - | - |
| 1777820407 | 14.44° C | 49% | 1019.1 hPa | 0 mm | - | - | - |
| 1777819504 | 14.44° C | 49% | 1019 hPa | 0 mm | - | - | - |
| 1777818643 | 13.89° C | 52% | 1019 hPa | 0 mm | - | - | - |
| 1777817745 | 13.33° C | 59% | 1019 hPa | 0 mm | - | - | - |
| 1777816821 | 12.78° C | 59% | 1019 hPa | 0 mm | - | - | - |
| 1777815924 | 12.78° C | 64% | 1019.1 hPa | 0 mm | - | - | - |
| 1777815054 | 12.22° C | 68% | 1019 hPa | 0 mm | - | - | - |
* Rain latest hour (hover to see other rain measurements)
** Current wind speed in m/s (hover to see current wind gust speed)